Starlink 35757

operational
NORAD ID: 66270 Int'l Des: 2025-247 Owner: SPXS Country: US Constellation: starlink
NOTLE

About Starlink 35757

Description loading...

Live Position

Loading 3D Globe...

Upcoming Passes

Altitude History

Altitude vs Time

uPlot chart will show altitude changes over time

Two-Line Element Set

1 66270U 25247F 25340.66670139 -.00086739 00000-0 -21812-2 0 9994
2 66270 53.1609 266.2079 0001151 90.9597 269.7689 15.39648438 6011
Epoch: Dec 6, 2025 • Age: 21 hours

Current Status

Altitude 451.4 km
Velocity 7.65 km/s
Sub-Earth Point 44.05°N, 127.91°E
Launch Date Oct 31, 2025
Age 36 days
Type internet

Technical Details

Classification Payload
Mass 575.00 kg
Dry Mass 530.00 kg
Total Mass 575.00 kg
Length 0.30 m
Diameter 4.10 m
Span 29.00 m
Shape Box + pan
Manufacturer SPXS
Bus Type Starlink V2MO
Phase Status In Orbit
Owner/State SPXS/US

Large Constellations

Loading constellations...